"2010-06-16 00:00:00",204940,3.21,144.9,4.042,0.274,18.25,108.267,20.44,22.31,22.68,0,110.9,13.14,21.27,106.9
"2010-06-16 00:00:30",204941,3.722,145.8,3.218,0.202,18.22,108.2669,20.44,22.31,22.68,0,110.9,13.15,21.27,107.8
"2010-06-16 00:01:00",204942,3.974,135.8,5.133,0.237,18.21,108.2687,20.45,22.33,23.29,0,110.9,13.14,21.27,97.8
"2010-06-16 00:01:30",204943,3.788,138.8,2.632,0.225,18.26,108.2663,20.44,22.36,23.34,0,110.9,13.14,21.27,100.8
"2010-06-16 00:02:00",204944,3.903,142.7,2.928,0.287,18.25,108.2657,20.44,22.38,23.22,0,110.9,13.13,21.26,104.7
"2010-06-16 00:02:30",204945,4.432,138,1.581,0.132,18.23,108.2696,20.45,22.35,22.47,0,110.9,13.13,21.27,100.0
"2010-06-16 00:03:00",204946,4.237,135.1,2.731,0.159,18.26,108.2727,20.46,22.33,22.43,0,110.9,13.15,21.28,97.1
"2010-06-16 00:03:30",204947,4.519,130.1,1.777,0.209,18.32,108.2718,20.46,22.29,22.35,0,110.9,13.15,21.28,92.1
"2010-06-16 00:04:00",204948,4.734,129.5,3.453,0.268,18.38,108.2746,20.46,22.3,22.5,0,110.9,13.15,21.29,91.5
"2010-06-16 00:04:30",204949,5.257,128.3,2.077,0.192,18.44,108.2823,20.48,22.31,22.26,0,110.9,13.15,21.31,90.3
"2010-06-16 00:05:00",204950,4.447,127.2,3.85,0.533,18.47,108.2886,20.5,22.3,22.44,0,110.9,13.15,21.32,89.2
"2010-06-16 00:05:30",204951,3.941,133.9,3.904,0.098,18.41,108.2895,20.5,22.33,22.39,0,110.9,13.15,21.33,95.9
"2010-06-16 00:06:00",204952,4.185,128,4.279,0.247,18.43,108.2898,20.5,22.33,22.48,0,110.9,13.15,21.33,90.0
"2010-06-16 00:06:30",204953,3.704,132.4,2.439,0.305,18.42,108.29,20.5,22.36,22.81,0,110.9,13.15,21.33,94.4
"2010-06-16 00:07:00",204954,3.387,133.9,1.867,0.383,18.39,108.284,20.49,22.36,23.13,0,110.9,13.15,21.31,95.9
"2010-06-16 00:07:30",204955,4.517,128.9,3.229,0.281,18.41,108.281,20.48,22.38,22.89,0,110.9,13.15,21.30,90.9
"2010-06-16 00:08:00",204956,4.111,127.3,1.909,0.13,18.39,108.2827,20.48,22.37,22.56,0,110.9,13.15,21.31,89.3
"2010-06-16 00:08:30",204957,3.848,125.3,1.486,0.163,18.39,108.2859,20.49,22.38,22.61,0,110.9,13.14,21.32,87.3
"2010-06-16 00:09:00",204958,3.711,129,1.323,0.148,18.36,108.2867,20.5,22.39,22.64,0,110.9,13.14,21.32,91.0
"2010-06-16 00:09:30",204959,3.95,134.3,2.198,0.294,18.36,108.2903,20.5,22.35,22.72,0,110.9,13.14,21.33,96.3
"2010-06-16 00:10:00",204960,4.206,125.2,6.246,0.146,18.38,108.2932,20.51,22.37,22.94,0,110.9,13.14,21.34,87.2
"2010-06-16 00:10:30",204961,4.299,132,1.87,0.135,18.4,108.2904,20.5,22.38,23.03,0,110.9,13.13,21.33,94.0
"2010-06-16 00:11:00",204962,4.367,139.6,1.688,0.246,18.35,108.2958,20.52,22.45,22.38,0,110.9,13.13,21.34,101.6
"2010-06-16 00:11:30",204963,3.926,140.9,4.18,0.199,18.36,108.298,20.52,22.43,22.33,0,110.9,13.12,21.35,102.9
"2010-06-16 00:12:00",204964,3.932,133.9,4.054,0.586,18.34,108.2974,20.52,22.49,22.9,0,110.9,13.12,21.35,95.9
"2010-06-16 00:12:30",204965,3.273,131.7,6.319,0.472,18.32,108.2977,20.52,22.5,23.24,0,110.9,13.12,21.35,93.7
"2010-06-16 00:13:00",204966,4.472,140.1,2.597,0.309,18.29,108.2971,20.52,22.51,22.71,0,110.9,13.11,21.35,102.1
"2010-06-16 00:13:30",204967,4.838,138.5,1.564,0.186,18.4,108.2971,20.52,22.38,22.33,0,110.9,13.13,21.35,100.5
"2010-06-16 00:14:00",204968,4.874,136.1,1.981,0.114,18.48,108.2986,20.53,22.32,22.07,0,110.9,13.15,21.35,98.1
"2010-06-16 00:14:30",204969,5.108,138.2,2.551,0.187,18.49,108.2992,20.53,22.33,21.94,0,110.9,13.15,21.35,100.2
"2010-06-16 00:15:00",204970,4.901,136.4,1.438,0.119,18.53,108.3004,20.53,22.33,21.91,0,110.9,13.15,21.35,98.4
"2010-06-16 00:15:30",204971,4.753,133.2,1.413,0.088,18.52,108.3023,20.54,22.35,22.4,0,110.9,13.15,21.36,95.2
"2010-06-16 00:16:00",204972,4.362,134.1,2.265,0.169,18.52,108.3164,20.57,22.36,22.27,0,110.9,13.15,21.40,96.1
"2010-06-16 00:16:30",204973,4.293,133.4,1.024,0.167,18.48,108.3231,20.59,22.38,22.71,0,110.9,13.15,21.41,95.4
"2010-06-16 00:17:00",204974,4.242,132.2,2.403,0.205,18.49,108.3252,20.59,22.41,22.81,0,110.9,13.14,21.42,94.2
"2010-06-16 00:17:30",204975,4.327,132.7,2.533,0.12,18.52,108.3197,20.58,22.44,22.97,0,110.9,13.14,21.40,94.7
"2010-06-16 00:18:00",204976,4.486,135.6,1.671,0.162,18.48,108.3208,20.58,22.45,22.83,0,110.9,13.13,21.41,97.6
"2010-06-16 00:18:30",204977,4.28,133.3,1.954,0.14,18.51,108.3214,20.58,22.45,23.01,0,110.9,13.13,21.41,95.3
"2010-06-16 00:19:00",204978,4.105,134.2,3.491,0.191,18.49,108.3208,20.58,22.5,23.06,0,110.9,13.12,21.41,96.2
"2010-06-16 00:19:30",204979,4.243,130,1.828,0.11,18.51,108.3199,20.58,22.45,22.92,0,110.9,13.13,21.40,92.0
"2010-06-16 00:20:00",204980,4.149,133,3.075,0.201,18.59,108.3207,20.58,22.39,23.75,0,110.9,13.14,21.41,95.0
"2010-06-16 00:20:30",204981,3.356,133.9,2.489,0.312,18.6,108.3212,20.58,22.38,24.7,0,110.9,13.15,21.41,95.9
"2010-06-16 00:21:00",204982,2.874,134.4,6.988,0.411,18.48,108.3155,20.57,22.4,23.5,0,110.9,13.15,21.39,96.4
"2010-06-16 00:21:30",204983,3.763,127.7,3.468,0.203,18.45,108.3057,20.54,22.45,23.26,0,110.9,13.13,21.37,89.7
"2010-06-16 00:22:00",204984,4.011,135,2.554,0.22,18.42,108.309,20.55,22.45,22.62,0,110.9,13.14,21.38,97.0
"2010-06-16 00:22:30",204985,4.347,134.2,2.742,0.183,18.45,108.313,20.56,22.44,22.75,0,110.9,13.14,21.39,96.2
"2010-06-16 00:23:00",204986,4.164,135.4,1.614,0.131,18.5,108.314,20.57,22.41,22.65,0,110.9,13.15,21.39,97.4
"2010-06-16 00:23:30",204987,4.059,130,5.409,0.188,18.51,108.3165,20.57,22.43,22.6,0,110.9,13.15,21.40,92.0
"2010-06-16 00:24:00",204988,4.202,130.6,2.942,0.228,18.48,108.3166,20.57,22.44,22.79,0,110.9,13.13,21.40,92.6
"2010-06-16 00:24:30",204989,4.076,129,1.725,0.146,18.5,108.3199,20.58,22.5,23.04,0,110.9,13.13,21.40,91.0
"2010-06-16 00:25:00",204990,4.364,128.1,4.026,0.286,18.49,108.3205,20.58,22.53,23.21,0,110.9,13.12,21.41,90.1
"2010-06-16 00:25:30",204991,4.045,128.3,2.223,0.266,18.46,108.321,20.58,22.6,23.79,0,110.9,13.11,21.41,90.3
"2010-06-16 00:26:00",204992,4.124,124.9,1.737,0.107,18.41,108.3151,20.57,22.52,23.99,0,110.9,13.1,21.39,86.9
"2010-06-16 00:26:30",204993,3.634,120.6,4.239,0.299,18.42,108.3008,20.53,22.52,24.55,0,110.9,13.12,21.36,82.6
"2010-06-16 00:27:00",204994,3.218,113.6,3.025,0.222,18.39,108.2986,20.53,22.53,25.06,0,110.9,13.12,21.35,75.6
"2010-06-16 00:27:30",204995,3.783,119.1,3.525,0.182,18.27,108.2993,20.53,22.62,24.4,0,110.9,13.1,21.35,81.1
"2010-06-16 00:28:00",204996,4.12,128.9,2.622,0.172,18.28,108.2914,20.51,22.72,24.22,0,110.9,13.09,21.33,90.9
"2010-06-16 00:28:30",204997,4.443,130.1,1.835,0.143,18.3,108.288,20.5,22.75,24.02,0,110.9,13.07,21.32,92.1
"2010-06-16 00:29:00",204998,4.105,126.6,4.138,0.154,18.5,108.2905,20.5,22.41,23.64,0,110.9,13.13,21.33,88.6
"2010-06-16 00:29:30",204999,4.034,120.7,3.075,0.188,18.55,108.2931,20.51,22.26,23.46,0,110.9,13.16,21.34,82.7
"2010-06-16 00:30:00",205000,4.467,120.2,2.96,0.257,18.61,108.2923,20.51,22.25,23.74,0,110.9,13.16,21.33,82.2
"2010-06-16 00:30:30",205001,4.68,118.7,5.368,0.417,18.61,108.2978,20.52,22.25,23.77,0,110.9,13.16,21.35,80.7
"2010-06-16 00:31:00",205002,4.081,121.7,2.412,0.287,18.62,108.3033,20.54,22.26,23.7,0,110.9,13.16,21.36,83.7
"2010-06-16 00:31:30",205003,3.775,127.3,2.672,0.194,18.57,108.3071,20.55,22.28,23.59,0,110.9,13.16,21.37,89.3
"2010-06-16 00:32:00",205004,3.287,134.1,2.731,0.196,18.54,108.3125,20.56,22.26,23.55,0,110.9,13.16,21.39,96.1
"2010-06-16 00:32:30",205005,3.362,138.3,5.056,0.217,18.55,108.3103,20.56,22.27,23.59,0,110.9,13.16,21.38,100.3
"2010-06-16 00:33:00",205006,3.326,141.2,4.042,0.185,18.55,108.312,20.56,22.28,23.94,0,110.9,13.16,21.38,103.2
"2010-06-16 00:33:30",205007,3.89,131.1,2.849,0.215,18.56,108.3151,20.57,22.27,23.96,0,110.9,13.16,21.39,93.1
"2010-06-16 00:34:00",205008,4.401,123.3,2.851,0.218,18.56,108.3114,20.56,22.27,24.43,0,110.9,13.16,21.38,85.3
"2010-06-16 00:34:30",205009,3.943,130.3,3.327,0.191,18.6,108.3085,20.55,22.27,24.82,0,110.9,13.16,21.37,92.3
"2010-06-16 00:35:00",205010,3.704,132.1,1.959,0.22,18.6,108.3057,20.54,22.25,23.83,0,110.9,13.16,21.37,94.1
"2010-06-16 00:35:30",205011,3.12,132.5,5.366,0.137,18.58,108.3057,20.54,22.25,24.58,0,110.9,13.16,21.37,94.5
"2010-06-16 00:36:00",205012,3.257,138.8,4.352,0.465,18.56,108.3014,20.53,22.26,24.02,0,110.9,13.16,21.36,100.8
"2010-06-16 00:36:30",205013,3.73,138.6,2.188,0.22,18.58,108.3055,20.54,22.28,23.61,0,110.9,13.16,21.37,100.6
"2010-06-16 00:37:00",205014,3.709,135.2,4.573,0.247,18.56,108.3056,20.54,22.28,24.14,0,110.9,13.16,21.37,97.2
"2010-06-16 00:37:30",205015,3.318,127.1,4.037,0.245,18.58,108.3026,20.54,22.27,24.53,0,110.9,13.16,21.36,89.1
"2010-06-16 00:38:00",205016,3.528,137.1,4.773,0.178,18.58,108.3026,20.54,22.28,24.77,0,110.9,13.16,21.36,99.1
"2010-06-16 00:38:30",205017,3.324,135.3,6.201,0.278,18.56,108.2999,20.53,22.28,24.71,0,110.9,13.16,21.35,97.3
"2010-06-16 00:39:00",205018,3.606,136.3,1.587,0.117,18.57,108.2976,20.52,22.28,25.47,0,110.9,13.16,21.35,98.3
"2010-06-16 00:39:30",205019,3.24,143.8,5.288,0.414,18.62,108.2908,20.51,22.28,25.44,0,110.9,13.16,21.33,105.8
"2010-06-16 00:40:00",205020,3.712,150.4,4.843,0.395,18.64,108.2861,20.49,22.3,25.99,0,110.9,13.16,21.32,112.4
"2010-06-16 00:40:30",205021,3.398,139.3,3.961,0.303,18.59,108.2859,20.49,22.3,26.2,0,110.9,13.15,21.32,101.3
"2010-06-16 00:41:00",205022,3.459,142.5,4.233,0.341,18.6,108.2859,20.49,22.27,25.41,0,110.9,13.16,21.32,104.5
"2010-06-16 00:41:30",205023,3.018,146.5,3.45,0.183,18.62,108.2893,20.5,22.3,26.32,0,110.9,13.16,21.33,108.5
"2010-06-16 00:42:00",205024,3.089,144.7,6.545,0.116,18.56,108.2851,20.49,22.31,25.49,0,110.9,13.15,21.31,106.7
"2010-06-16 00:42:30",205025,3.331,135.9,1.352,0.095,18.51,108.2922,20.51,22.32,23.52,0,110.9,13.15,21.33,97.9
"2010-06-16 00:43:00",205026,3.211,136.3,2.159,0.072,18.5,108.2971,20.52,22.32,23.09,0,110.9,13.15,21.35,98.3
"2010-06-16 00:43:30",205027,3.208,134.4,0.831,0.077,18.51,108.2991,20.53,22.32,23.09,0,110.9,13.16,21.35,96.4
"2010-06-16 00:44:00",205028,3.183,136.2,2.093,0.092,18.5,108.302,20.53,22.32,23.21,0,110.9,13.15,21.36,98.2
"2010-06-16 00:44:30",205029,3.116,139.3,1.047,0.075,18.55,108.2995,20.53,22.28,23.22,0,110.9,13.15,21.35,101.3
"2010-06-16 00:45:00",205030,3.458,138.4,2.386,0.181,18.54,108.3014,20.53,22.31,22.94,0,110.9,13.15,21.36,100.4
"2010-06-16 00:45:30",205031,3.54,140.1,1.756,0.103,18.55,108.2998,20.53,22.31,22.95,0,110.9,13.15,21.35,102.1
"2010-06-16 00:46:00",205032,3.434,136.6,1.707,0.091,18.54,108.2989,20.53,22.37,23.26,0,110.9,13.14,21.35,98.6
"2010-06-16 00:46:30",205033,3.36,136.5,4.777,0.185,18.49,108.298,20.52,22.45,23.01,0,110.9,13.13,21.35,98.5
"2010-06-16 00:47:00",205034,3.296,140.8,4.012,0.136,18.45,108.2983,20.53,22.51,23.25,0,110.9,13.12,21.35,102.8
"2010-06-16 00:47:30",205035,3.422,135.3,2.432,0.085,18.39,108.298,20.52,22.57,23.4,0,110.9,13.12,21.35,97.3
"2010-06-16 00:48:00",205036,3.35,132.7,3.727,0.09,18.43,108.298,20.52,22.54,23.4,0,110.9,13.12,21.35,94.7
"2010-06-16 00:48:30",205037,3.476,131.2,1.464,0.202,18.45,108.2986,20.53,22.52,23.35,0,110.9,13.12,21.35,93.2
"2010-06-16 00:49:00",205038,3.653,132.7,1.31,0.097,18.48,108.2992,20.53,22.54,23.71,0,110.9,13.12,21.35,94.7
"2010-06-16 00:49:30",205039,3.314,134.2,1.196,0.151,18.49,108.3003,20.53,22.59,23.69,0,110.9,13.11,21.35,96.2
"2010-06-16 00:50:00",205040,3.283,131.9,3.313,0.303,18.45,108.3008,20.53,22.67,23.84,0,110.9,13.1,21.36,93.9
"2010-06-16 00:50:30",205041,2.797,118.8,2.91,0.131,18.43,108.3019,20.53,22.65,23.72,0,110.9,13.1,21.36,80.8
"2010-06-16 00:51:00",205042,2.726,122.2,2.745,0.085,18.39,108.3,20.53,22.6,23.73,0,110.9,13.11,21.35,84.2
"2010-06-16 00:51:30",205043,2.916,118.3,4.133,0.139,18.46,108.2986,20.53,22.52,24.51,0,110.9,13.11,21.35,80.3
"2010-06-16 00:52:00",205044,3.073,120.1,2.316,0.092,18.42,108.2971,20.52,22.6,24.94,0,110.9,13.1,21.35,82.1
"2010-06-16 00:52:30",205045,3.197,126.7,3.707,0.216,18.4,108.2986,20.53,22.63,24.12,0,110.9,13.1,21.35,88.7
"2010-06-16 00:53:00",205046,3.249,128.9,3.328,0.212,18.4,108.3001,20.53,22.61,24.25,0,110.9,13.1,21.35,90.9
"2010-06-16 00:53:30",205047,3.142,120.3,2.294,0.191,18.43,108.302,20.53,22.59,23.96,0,110.9,13.1,21.36,82.3
"2010-06-16 00:54:00",205048,3.287,125.1,4.412,0.254,18.45,108.3001,20.53,22.58,24.31,0,110.9,13.1,21.35,87.1
"2010-06-16 00:54:30",205049,3.226,127.1,1.543,0.147,18.42,108.3004,20.53,22.6,24.49,0,110.9,13.09,21.35,89.1
"2010-06-16 00:55:00",205050,3.521,124.3,2.43,0.282,18.47,108.3047,20.54,22.53,24.29,0,110.9,13.1,21.37,86.3
"2010-06-16 00:55:30",205051,4.219,121,2.707,0.116,18.55,108.3035,20.54,22.49,24.39,0,110.9,13.11,21.36,83.0
"2010-06-16 00:56:00",205052,4.328,119.7,2.706,0.167,18.61,108.3065,20.55,22.41,24.46,0,110.9,13.1,21.37,81.7
"2010-06-16 00:56:30",205053,4.037,117.4,2.12,0.184,18.65,108.3066,20.55,22.37,24.94,0,110.9,13.13,21.37,79.4
"2010-06-16 00:57:00",205054,4.058,123.2,4.592,0.274,18.77,108.3064,20.55,22.28,24.22,0,110.9,13.13,21.37,85.2
"2010-06-16 00:57:30",205055,3.505,127.2,2.696,0.136,18.76,108.3072,20.55,22.27,24.01,0,110.9,13.15,21.37,89.2
"2010-06-16 00:58:00",205056,3.561,124.9,6.348,0.189,18.72,108.3102,20.56,22.29,23.92,0,110.9,13.15,21.38,86.9
"2010-06-16 00:58:30",205057,3.436,126.7,2.679,0.128,18.67,108.3114,20.56,22.32,23.75,0,110.9,13.13,21.38,88.7
"2010-06-16 00:59:00",205058,3.096,129.6,3.319,0.174,18.66,108.3136,20.56,22.35,23.69,0,110.9,13.1,21.39,91.6
"2010-06-16 00:59:30",205059,3.288,126.7,2.709,0.133,18.66,108.3151,20.57,22.3,23.64,0,110.9,13.12,21.39,88.7
"2010-06-16 01:00:00",205060,3.556,131,1.546,0.128,18.74,108.3152,20.57,22.27,23.77,0,110.9,13.15,21.39,93.0
"2010-06-16 01:00:30",205061,3.572,125.3,0.885,0.073,18.71,108.3152,20.57,22.27,23.66,0,110.9,13.16,21.39,87.3
"2010-06-16 01:01:00",205062,3.626,122.9,2.633,0.087,18.73,108.317,20.57,22.27,23.58,0,110.9,13.16,21.40,84.9
"2010-06-16 01:01:30",205063,4.001,117.9,1.148,0.099,18.69,108.3168,20.57,22.27,23.61,0,110.9,13.16,21.40,79.9
"2010-06-16 01:02:00",205064,3.905,118.2,1.56,0.094,18.7,108.3162,20.57,22.3,23.66,0,110.9,13.14,21.39,80.2
"2010-06-16 01:02:30",205065,3.652,119.9,1.303,0.11,18.7,108.3203,20.58,22.3,23.66,0,110.9,13.15,21.41,81.9
"2010-06-16 01:03:00",205066,3.7,123.4,3.672,0.17,18.64,108.3214,20.58,22.35,23.87,0,110.9,13.12,21.41,85.4
"2010-06-16 01:03:30",205067,3.869,131.2,0.995,0.2,18.63,108.3205,20.58,22.42,23.82,0,110.9,13.12,21.41,93.2
"2010-06-16 01:04:00",205068,3.753,126.2,2.719,0.12,18.61,108.3218,20.59,22.44,24.08,0,110.9,13.12,21.41,88.2
"2010-06-16 01:04:30",205069,3.948,121.9,4.312,0.211,18.61,108.3227,20.59,22.49,24.24,0,110.9,13.12,21.41,83.9
"2010-06-16 01:05:00",205070,3.762,122,3.883,0.35,18.64,108.3224,20.59,22.46,24.28,0,110.9,13.13,21.41,84.0
"2010-06-16 01:05:30",205071,3.394,127.7,4.223,0.166,18.56,108.3227,20.59,22.5,24.29,0,110.9,13.12,21.41,89.7
"2010-06-16 01:06:00",205072,3.154,131.6,2.375,0.241,18.56,108.3218,20.59,22.45,24.29,0,110.9,13.14,21.41,93.6
"2010-06-16 01:06:30",205073,3.489,131.4,2.275,0.112,18.6,108.3239,20.59,22.5,24.27,0,110.9,13.11,21.41,93.4
"2010-06-16 01:07:00",205074,3.558,123.8,4.18,0.138,18.63,108.3218,20.59,22.46,24.37,0,110.9,13.12,21.41,85.8
"2010-06-16 01:07:30",205075,3.356,128.2,2.707,0.185,18.66,108.3225,20.59,22.42,24.22,0,110.9,13.14,21.41,90.2
"2010-06-16 01:08:00",205076,3.383,120,4.957,0.208,18.66,108.3222,20.59,22.41,24.04,0,110.9,13.13,21.41,82.0
"2010-06-16 01:08:30",205077,3.307,115.6,3.207,0.329,18.66,108.3166,20.57,22.42,24.91,0,110.9,13.13,21.40,77.6
"2010-06-16 01:09:00",205078,3.371,117.6,3.604,0.238,18.64,108.304,20.54,22.42,25.25,0,110.9,13.12,21.36,79.6
"2010-06-16 01:09:30",205079,3.111,115.7,2.536,0.096,18.63,108.293,20.51,22.46,24.94,0,110.9,13.12,21.33,77.7
"2010-06-16 01:10:00",205080,3.2,119.3,1.857,0.077,18.59,108.2913,20.51,22.48,24.97,0,110.9,13.12,21.33,81.3
"2010-06-16 01:10:30",205081,3.408,126.9,3.248,0.122,18.58,108.2917,20.51,22.51,25.01,0,110.9,13.11,21.33,88.9
"2010-06-16 01:11:00",205082,3.692,129.3,1.835,0.25,18.62,108.2935,20.51,22.55,24.25,0,110.9,13.1,21.34,91.3
"2010-06-16 01:11:30",205083,3.617,133.3,3.749,0.207,18.65,108.2964,20.52,22.43,24.21,0,110.9,13.12,21.34,95.3
"2010-06-16 01:12:00",205084,3.992,134.4,4.387,0.35,18.73,108.3034,20.54,22.36,24.2,0,110.9,13.12,21.36,96.4
"2010-06-16 01:12:30",205085,4.215,130,2.318,0.134,18.77,108.3119,20.56,22.31,23.83,0,110.9,13.14,21.38,92.0
"2010-06-16 01:13:00",205086,4.219,127.5,2.42,0.108,18.81,108.3189,20.58,22.31,23.72,0,110.9,13.15,21.40,89.5
"2010-06-16 01:13:30",205087,4.324,125.7,2.161,0.12,18.86,108.3243,20.59,22.31,23.7,0,110.9,13.15,21.42,87.7
"2010-06-16 01:14:00",205088,4.636,124.2,2.028,0.126,18.89,108.3273,20.6,22.3,23.95,0,110.9,13.15,21.42,86.2
"2010-06-16 01:14:30",205089,4.75,121.4,3.159,0.202,18.85,108.3254,20.59,22.3,24.03,0,110.9,13.15,21.42,83.4
"2010-06-16 01:15:00",205090,4.798,116.9,2.123,0.091,18.86,108.3232,20.59,22.29,24.31,0,110.9,13.16,21.41,78.9
"2010-06-16 01:15:30",205091,4.743,112.2,1.918,0.118,18.86,108.3134,20.56,22.28,24.62,0,110.9,13.16,21.39,74.2
"2010-06-16 01:16:00",205092,4.508,113.8,2.471,0.143,18.87,108.3007,20.53,22.26,25.02,0,110.9,13.16,21.35,75.8
"2010-06-16 01:16:30",205093,4.277,114.9,2.259,0.214,18.89,108.2996,20.53,22.24,24.94,0,110.9,13.16,21.35,76.9
"2010-06-16 01:17:00",205094,4.041,118.8,2.463,0.193,18.86,108.2996,20.53,22.23,24.85,0,110.9,13.16,21.35,80.8
"2010-06-16 01:17:30",205095,4.053,122.4,2.828,0.137,18.82,108.2996,20.53,22.22,25.1,0,110.9,13.16,21.35,84.4
"2010-06-16 01:18:00",205096,3.775,125.5,3.964,0.193,18.89,108.2996,20.53,22.24,24.33,0,110.9,13.16,21.35,87.5
"2010-06-16 01:18:30",205097,3.971,117.5,2.43,0.196,18.81,108.2996,20.53,22.24,25.01,0,110.9,13.16,21.35,79.5
"2010-06-16 01:19:00",205098,3.977,117.4,2.033,0.152,18.86,108.2988,20.53,22.24,25.13,0,110.9,13.16,21.35,79.4
"2010-06-16 01:19:30",205099,4.034,123,2.769,0.057,18.89,108.2993,20.53,22.24,23.9,0,110.9,13.16,21.35,85.0
"2010-06-16 01:20:00",205100,4.082,123.6,1.688,0.131,18.89,108.2996,20.53,22.26,23.71,0,110.9,13.16,21.35,85.6
"2010-06-16 01:20:30",205101,4.405,121,1.941,0.168,18.89,108.2996,20.53,22.27,23.69,0,110.9,13.16,21.35,83.0
"2010-06-16 01:21:00",205102,4.082,114.8,2.165,0.071,18.85,108.2996,20.53,22.26,24.11,0,110.9,13.16,21.35,76.8
"2010-06-16 01:21:30",205103,4.127,117.5,2.56,0.172,18.86,108.2996,20.53,22.24,24.03,0,110.9,13.17,21.35,79.5
"2010-06-16 01:22:00",205104,4.221,118.1,1.595,0.083,18.88,108.2996,20.53,22.24,24,0,110.9,13.17,21.35,80.1
"2010-06-16 01:22:30",205105,4.173,119.4,2.319,0.116,18.85,108.2996,20.53,22.29,23.99,0,110.9,13.16,21.35,81.4
"2010-06-16 01:23:00",205106,4.277,122.8,1.073,0.088,18.86,108.2996,20.53,22.35,23.62,0,110.9,13.15,21.35,84.8
"2010-06-16 01:23:30",205107,4.273,122.2,1.012,0.106,18.85,108.2996,20.53,22.35,23.71,0,110.9,13.15,21.35,84.2
"2010-06-16 01:24:00",205108,4.652,123.1,2.05,0.194,18.89,108.2996,20.53,22.32,23.95,0,110.8,13.15,21.35,85.1
"2010-06-16 01:24:30",205109,4.816,127.6,1.211,0.102,18.91,108.2996,20.53,22.32,24.23,0,110.9,13.16,21.35,89.6
"2010-06-16 01:25:00",205110,4.598,126.6,2.644,0.121,18.94,108.2996,20.53,22.34,24.26,0,110.9,13.15,21.35,88.6
"2010-06-16 01:25:30",205111,4.417,120.9,1.175,0.095,18.93,108.2996,20.53,22.35,24.21,0,110.9,13.14,21.35,82.9
"2010-06-16 01:26:00",205112,4.317,123.4,2.552,0.076,18.94,108.2996,20.53,22.3,24.31,0,110.8,13.16,21.35,85.4
"2010-06-16 01:26:30",205113,4.441,121.5,1.456,0.047,18.92,108.2996,20.53,22.32,24.73,0,110.9,13.15,21.35,83.5
"2010-06-16 01:27:00",205114,4.671,121.4,1.597,0.211,18.92,108.2996,20.53,22.36,24.86,0,110.9,13.15,21.35,83.4
"2010-06-16 01:27:30",205115,4.73,128.6,1.758,0.201,18.87,108.2996,20.53,22.42,24.91,0,110.8,13.14,21.35,90.6
"2010-06-16 01:28:00",205116,4.495,130.6,1.285,0.128,18.88,108.2996,20.53,22.44,24.92,0,110.8,13.14,21.35,92.6
"2010-06-16 01:28:30",205117,4.174,127.8,1.714,0.152,18.88,108.2996,20.53,22.48,24.95,0,110.8,13.14,21.35,89.8
"2010-06-16 01:29:00",205118,4.256,130.1,2.424,0.166,18.88,108.2996,20.53,22.46,24.99,0,110.9,13.14,21.35,92.1
"2010-06-16 01:29:30",205119,4.084,124.7,1.718,0.168,18.85,108.2996,20.53,22.5,25.21,0,110.9,13.13,21.35,86.7
"2010-06-16 01:30:00",205120,4.348,123.4,1.636,0.091,18.83,108.3011,20.53,22.58,25.38,0,110.8,13.12,21.36,85.4
"2010-06-16 01:30:30",205121,4.234,123.8,1.109,0.066,18.82,108.3011,20.53,22.59,25.45,0,110.8,13.12,21.36,85.8
"2010-06-16 01:31:00",205122,4.161,124.3,1.189,0.088,18.83,108.2999,20.53,22.58,25.54,0,110.8,13.12,21.35,86.3
"2010-06-16 01:31:30",205123,4.286,124.2,1.033,0.07,18.83,108.3005,20.53,22.59,25.56,0,110.8,13.12,21.35,86.2
"2010-06-16 01:32:00",205124,4.337,124,0.769,0.054,18.78,108.3011,20.53,22.64,25.8,0,110.8,13.11,21.36,86.0
"2010-06-16 01:32:30",205125,4.348,122.2,0.932,0.107,18.8,108.3005,20.53,22.68,25.94,0,110.8,13.11,21.35,84.2
"2010-06-16 01:33:00",205126,4.447,124.9,1.893,0.08,18.87,108.3009,20.53,22.52,25.73,0,110.9,13.11,21.36,86.9
"2010-06-16 01:33:30",205127,4.491,128.4,1.649,0.093,18.98,108.2938,20.51,22.44,25.49,0,110.9,13.14,21.34,90.4
"2010-06-16 01:34:00",205128,4.525,127.1,1.921,0.186,18.99,108.2984,20.53,22.43,25.43,0,110.9,13.13,21.35,89.1
"2010-06-16 01:34:30",205129,4.148,129.2,1.509,0.098,19.02,108.2961,20.52,22.38,25.34,0,110.9,13.14,21.34,91.2
"2010-06-16 01:35:00",205130,4.019,131.6,1.845,0.122,18.98,108.2983,20.53,22.38,25.35,0,110.8,13.14,21.35,93.6
"2010-06-16 01:35:30",205131,4.386,128.9,1.031,0.122,18.99,108.2968,20.52,22.4,25.43,0,110.8,13.14,21.34,90.9
"2010-06-16 01:36:00",205132,4.47,125.2,2.491,0.141,18.97,108.3021,20.53,22.39,25.44,0,110.8,13.14,21.36,87.2
"2010-06-16 01:36:30",205133,4.431,126.5,2.249,0.132,18.97,108.3012,20.53,22.44,25.52,0,110.8,13.14,21.36,88.5
"2010-06-16 01:37:00",205134,4.732,126.8,1.232,0.128,18.98,108.2992,20.53,22.45,25.63,0,110.8,13.13,21.35,88.8
"2010-06-16 01:37:30",205135,4.798,126.9,1.039,0.074,19.07,108.3027,20.54,22.33,25.49,0,110.8,13.15,21.36,88.9
"2010-06-16 01:38:00",205136,4.778,126.2,0.943,0.104,19.12,108.3039,20.54,22.29,25.49,0,110.8,13.16,21.36,88.2
"2010-06-16 01:38:30",205137,4.73,127.9,0.93,0.094,19.11,108.306,20.54,22.27,25.56,0,110.8,13.16,21.37,89.9
"2010-06-16 01:39:00",205138,4.673,127.1,0.837,0.117,19.15,108.3112,20.56,22.24,25.69,0,110.8,13.17,21.38,89.1
"2010-06-16 01:39:30",205139,4.807,126.7,1.219,0.103,19.16,108.3094,20.55,22.23,25.83,0,110.8,13.17,21.38,88.7
"2010-06-16 01:40:00",205140,4.638,126.8,1.462,0.104,19.18,108.3094,20.55,22.2,25.88,0,110.8,13.17,21.38,88.8
"2010-06-16 01:40:30",205141,4.675,126.7,1.702,0.1,19.16,108.3082,20.55,22.21,25.89,0,110.8,13.18,21.37,88.7
"2010-06-16 01:41:00",205142,4.806,125.7,1.414,0.093,19.22,108.3044,20.54,22.21,26.03,0,110.8,13.17,21.36,87.7
"2010-06-16 01:41:30",205143,4.677,123.6,1.737,0.153,19.25,108.3045,20.54,22.2,26.02,0,110.8,13.18,21.36,85.6
"2010-06-16 01:42:00",205144,4.954,126.9,1.971,0.148,19.28,108.2942,20.51,22.19,26.06,0,110.8,13.18,21.34,88.9
"2010-06-16 01:42:30",205145,5.078,128.3,1.36,0.199,19.24,108.2929,20.51,22.19,26.09,0,110.8,13.18,21.33,90.3
"2010-06-16 01:43:00",205146,5.392,126.2,0.63,0.099,19.26,108.2926,20.51,22.19,26.07,0,110.8,13.18,21.33,88.2
"2010-06-16 01:43:30",205147,5.14,126.8,1.11,0.094,19.26,108.2965,20.52,22.19,26.13,0,110.8,13.18,21.34,88.8
"2010-06-16 01:44:00",205148,5.099,127.5,1.24,0.075,19.31,108.2951,20.52,22.17,26.13,0,110.8,13.18,21.34,89.5
"2010-06-16 01:44:30",205149,5.19,127.1,1.542,0.087,19.27,108.2962,20.52,22.17,26.23,0,110.8,13.19,21.34,89.1
"2010-06-16 01:45:00",205150,5.43,124.7,0.985,0.11,19.27,108.2966,20.52,22.18,26.49,0,110.8,13.19,21.34,86.7
"2010-06-16 01:45:30",205151,5.45,124.1,0.964,0.103,19.22,108.2987,20.53,22.18,26.87,0,110.8,13.19,21.35,86.1
"2010-06-16 01:46:00",205152,5.372,126.7,1.693,0.079,19.27,108.3012,20.53,22.18,26.88,0,110.8,13.19,21.36,88.7
"2010-06-16 01:46:30",205153,5.308,125.6,1.16,0.119,19.28,108.3021,20.53,22.2,26.71,0,110.8,13.19,21.36,87.6
"2010-06-16 01:47:00",205154,5.199,127,1.563,0.115,19.26,108.3021,20.53,22.17,26.83,0,110.8,13.19,21.36,89.0
"2010-06-16 01:47:30",205155,5.163,127.9,0.691,0.063,19.29,108.3024,20.54,22.21,26.74,0,110.8,13.19,21.36,89.9
"2010-06-16 01:48:00",205156,5.075,127.1,0.718,0.107,19.26,108.3024,20.54,22.22,26.73,0,110.8,13.19,21.36,89.1